Flag for U.S.A. Weather past 2 weeks in Albuquerque, New Mexico, U.S.A.

Now
66 °F

Scattered clouds.


Feels Like: 66 °F
Forecast: 65 / 82 °F
Wind: 6 mph from Northeast

Location: Albuquerque International Airport

Current Time: Aug 1, 2014 at 8:14:16 AM

Latest Report: Aug 1, 2014 at 7:52 AM


Visibility: 10 mi

Pressure: 30.09 "Hg

Humidity: 68%

Dew point: 55 °F

Location of AlbuquerqueLocation

Historic Weather in Albuquerque — Graph

°F

Albuquerque temperature yesterday

Maximum temperature yesterday: 81 °F (at 4:52 PM)
Minimum temperature yesterday: 63 °F (at 2:52 AM)
Average temperature yesterday: 70 °F

Past Weeks' High & Low Weather Summary

 TemperatureHumidityPressure
High99 °F (Jul 26, 3:52 PM)91% (Jul 29, 4:52 PM)30.36 "Hg (Jul 29, 4:52 PM)
Low63 °F (Jul 31, 2:52 AM)12% (Jul 26, 6:52 PM)29.73 "Hg (Jul 17, 5:52 PM)
Average79 °F42%29.94 "Hg
* Reported Jul 17 6:52 AM — Aug 1 6:52 AM, Albuquerque, Weather by CustomWeather, © 2014

Note: Actual official high and low records may vary slightly from our data, if they occured in-between our weather recording intervals... More about our weather records

Advertising

Albuquerque weather history for previous 24 hours

 ConditionsComfort  
Time TempWeatherWind HumidityBarometerVisibility
6:52 AM
Aug 1
63 °FPassing clouds.7 mph75%30.08 "Hg10 mi
5:52 AM64 °FPassing clouds.8 mph70%30.06 "Hg10 mi
4:52 AM63 °FPassing clouds.No wind75%30.03 "Hg10 mi
3:52 AM63 °FPassing clouds.5 mph73%30.03 "Hg10 mi
2:52 AM64 °FPassing clouds.8 mph70%30.04 "Hg10 mi
1:52 AM66 °FClear.7 mph68%30.05 "Hg10 mi
12:52 AM68 °FPassing clouds.10 mph59%30.05 "Hg10 mi
11:52 PM
Jul 31
67 °FPassing clouds.17 mph59%30.06 "Hg10 mi
10:52 PM66 °FPassing clouds.17 mph63%30.05 "Hg10 mi
9:52 PM65 °FPassing clouds.20 mph68%30.06 "Hg10 mi
8:52 PM67 °FBroken clouds.18 mph68%30.05 "Hg10 mi
7:52 PM68 °FLight rain. Cloudy.5 mph68%30.01 "Hg10 mi
6:52 PM74 °FThunderstorms. Broken clouds.16 mph45%30.00 "Hg10 mi
5:52 PM80 °FCloudy.10 mph47%29.95 "Hg10 mi
4:52 PM81 °FBroken clouds.9 mph41%29.94 "Hg10 mi
3:52 PM80 °FPartly sunny.6 mph44%29.95 "Hg10 mi
2:52 PM80 °FPartly sunny.3 mph45%29.97 "Hg10 mi
1:52 PM77 °FScattered clouds.3 mph52%30.00 "Hg10 mi
12:52 PM76 °FScattered clouds.3 mph52%30.03 "Hg10 mi
11:52 AM75 °FBroken clouds.7 mph55%30.05 "Hg10 mi
10:52 AM73 °FBroken clouds.5 mph55%30.07 "Hg10 mi
9:52 AM71 °FPartly sunny.9 mph63%30.05 "Hg10 mi
8:52 AM69 °FPartly sunny.6 mph66%30.08 "Hg10 mi
Weather by CustomWeather, © 2014

See weather overviewHow to use our weather pages